Regional Weather Roundup
Issued by NWS

Home | Current Version | Previous Version | Text Only | Print | Product List | Glossary On
Versions: 1 2 3 4 5 6 7 8 9 10 11 12 13 14 15 16 17 18 19 20 21 22 23 24 25 26 27 28 29 30 31 32 33 34 35 36 37 38 39 40 41 42 43 44 45 46 47 48 49 50
000
ASUS43 KMPX 040210
RWRMN
WEATHER ROUNDUP FOR MINNESOTA
NATIONAL WEATHER SERVICE TWIN CITIES/CHANHASSEN MN
900 PM CDT THU SEP 03 2015


NOTE: "FAIR" INDICATES FEW OR NO CLOUDS BELOW 12,000 FEET WITH NO
SIGNIFICANT WEATHER AND/OR OBSTRUCTIONS TO VISIBILITY. N/A MEANS
CURRENT SKY AND/OR WEATHER CONDITIONS ARE NOT AVAILABLE.

MNZ060>063-068>070-040300-
   Twin Cities Metro

CITY           SKY/WX    TMP DP  RH WIND       PRES   REMARKS
TWIN CITIES    PTCLDY    78  71  79 E10       29.88R
ST PAUL        CLEAR     77  70  79 SE6       29.88R
CRYSTAL        CLEAR     80  70  71 E7        29.87R
BLAINE         CLEAR     79  72  78 E6        29.88
LAKEVILLE      CLEAR     72  72 100 CALM      29.88R
EDEN PRAIRIE   CLEAR     79  72  79 E8        29.86R
SOUTH ST PAUL  CLEAR     78  70  77 E3        29.89R
LAKE ELMO      FAIR      73  70  88 E5        29.91R
$$
MNZ001>005-007-008-013>017-022>024-027-028-040300-
   Northwest Minnesota

CITY           SKY/WX    TMP DP  RH WIND       PRES   REMARKS
BEMIDJI        CLEAR     73  67  81 SE8       29.88R
HALLOCK        CLEAR     82  72  69 SE12      29.72R
ROSEAU         CLEAR     77  68  73 SE14      29.80R
WARROAD        CLEAR     75  68  78 SE12G17   29.82R
THIEF RVR FALL PTCLDY    79  72  78 SE9       29.81R
CROOKSTON      PTCLDY    82  72  69 S15G21    29.77R
FOSSTON        CLEAR     77  66  69 SE9       29.84R
DETROIT LAKES  CLEAR     77  72  83 SE9       29.86R
MOORHEAD       CLEAR     81  73  78 SE9       29.79R
PARK RAPIDS    CLEAR     77  67  71 SE12      29.88R
MAHNOMEN       FAIR      78  71  80 SE8       29.83R
$$
MNZ006-009>011-018-025>026-040300-
   North Central Minnesota

CITY           SKY/WX    TMP DP  RH WIND       PRES   REMARKS
BAUDETTE       CLEAR     74  63  68 SE13G18   29.86R
FLAG ISLAND    CLEAR     75  66  73 SE17      29.81R
INTL FALLS     CLEAR     66  62  87 SE8       29.90R
WASKISH        CLEAR     72  64  78 E6        29.87S
BIG FORK       CLEAR     70  63  78 SE6       29.93R
LONGVILLE      CLEAR     72  66  83 SE3       29.91R
GRAND RAPIDS     N/A     70  61  73 SE7       29.94R
CRANE LAKE     CLEAR     63  61  94 SE1       29.96R
ORR            CLEAR     68  57  68 SE3       29.92R
COOK           CLEAR     66  57  72 CALM      29.96R
WALKER         FAIR      73  67  79 SE7       29.89R
$$
MNZ012-019>021-037-040300-
   Northeast Minnesota

CITY           SKY/WX    TMP DP  RH WIND       PRES   REMARKS
DULUTH         PTCLDY    61  50  67 E13       29.97R
ELY            CLEAR     63  52  67 SE5       29.98R
HIBBING        CLEAR     64  56  75 SE9       29.96R
EVELETH        CLEAR     63  52  67 CALM      29.98R
DULUTH HARBOR  CLEAR     61  57  88 E10       29.97R
TWO HARBORS    CLEAR     61  54  77 NE5       29.97R
SILVER BAY     CLEAR     57  52  82 CALM      29.97S
GRAND MARAIS     N/A     58  54  86 CALM      29.99R
G MARAIS ARPRT CLEAR     61  52  72 NE3       30.04R
$$
MNZ029>031-032-039>041-046>048-054>057-064-040300-
   West Central Minnesota

CITY           SKY/WX    TMP DP  RH WIND       PRES   REMARKS
FERGUS FALLS   CLEAR     81  73  78 SE10      29.81R
WHEATON        CLEAR     73  72  94 E7        29.82R
MORRIS         CLEAR     79  75  89 SE9       29.82R
ALEXANDRIA     MOCLDY    77  72  84 SE9       29.89R
ELBOW LAKE     FAIR      78  74  88 SE10      29.83R
WADENA         CLEAR     75  70  83 E8        29.87R
GLENWOOD       CLEAR     75  73  94 E9        29.88R
APPLETON       CLEAR     81  73  78 SE9       29.81R
BENSON         PTCLDY    81  73  78 SE7       29.83R
ORTONVILLE     CLEAR     81  73  78 SE9       29.80R
MADISON        PTCLDY    79  75  89 SE7       29.81R
WILLMAR        FAIR      79  75  89 E12       29.86R
$$
MNZ033>034-036-042>043-049>051-058-059-040300-
   Central Minnesota

CITY           SKY/WX    TMP DP  RH WIND       PRES   REMARKS
ST CLOUD       FAIR      75  71  87 E7        29.88R
SAUK CENTRE    FAIR      76  72  87 E7        29.87R
PAYNESVILLE    CLEAR     77  72  84 E7        29.87R
AITKIN         CLEAR     70  63  78 E3        29.92R
PINE RIVER     CLEAR     73  66  78 SE8       29.93R
BRAINERD       CLEAR     73  67  81 SE3       29.90R
STAPLES        CLEAR     75  68  78 SE8       29.88R
LONG PRAIRIE   FAIR      73  70  88 E7        29.88R
LITTLE FALLS   CLEAR     73  66  78 E6        29.89R
LITCHFIELD     CLEAR     79  75  89 E8        29.87R
BUFFALO        CLEAR     76  70  82 E5        29.88R
MAPLE LAKE     CLEAR     76  73  88 E7        29.88R
$$
MNZ037-044-045-052-053-040300-
   East Central Minnesota

CITY           SKY/WX    TMP DP  RH WIND       PRES   REMARKS
PRINCETON      CLEAR     75  70  83 E6        29.90R
MORA           CLEAR     70  64  83 E3        29.93R
CAMBRIDGE      CLEAR     77  64  65 E6        29.89R
RUSH CITY      CLEAR     73  68  86 E3        29.91R
MOOSE LAKE     CLEAR     61  55  82 NE3       29.94R
HINCKLEY       FAIR      70  68  94 NE6       29.92R
CLOQUET        CLEAR     61  50  67 E6        29.97R
MCGREGOR       CLEAR     63  59  88 E9        29.95R
$$
MNZ071>073-080-081-089-090-097-098-040300-
   Southwest Minnesota

CITY           SKY/WX    TMP DP  RH WIND       PRES   REMARKS
MONTEVIDEO     CLEAR     79  73  83 SE7       29.84R
GRANITE FALLS  CLEAR     81  76  86 E5        29.84R
CANBY          CLEAR     76  72  87 SE5       29.83R
MARSHALL       CLEAR     79  72  78 SE7       29.84R
REDWOOD FALLS  CLEAR     81  76  84 SE6       29.83R
OLIVIA         CLEAR     77  70  78 E8        29.84R
PIPESTONE      CLEAR     77  72  83 SE5       29.85R
WINDOM         CLEAR     79  73  83 E6        29.85R
WORTHINGTON    PTCLDY    75  72  88 SE6       29.86R
JACKSON        CLEAR     77  73  88 SE5       29.86R
TRACY          CLEAR     78  74  88 S5        29.84R
SLAYTON        CLEAR     75  74  96 CALM      29.86R
$$
MNZ065>067-074>077-082>085-091>093-040300-
   South Central Minnesota

CITY           SKY/WX    TMP DP  RH WIND       PRES   REMARKS
MANKATO        CLEAR     81  75  83 SE8       29.86R
NEW ULM        CLEAR     81  75  83 SE7       29.84R
ST JAMES       CLEAR     79  75  89 E6        29.85R
FAIRMONT       MOCLDY    79  68  69 SE8       29.85R
GLENCOE        CLEAR     79  76  90 E9        29.85R
FARIBAULT      CLEAR     79  73  83 E6        29.88R
OWATONNA       CLEAR     81  73  78 SE6       29.88R
WASECA         CLEAR     77  73  88 E6        29.89R
ALBERT LEA     CLEAR     79  75  89 SE5       29.88R
$$
MNZ078>079-086>088-094>096-040300-
   Southeast Minnesota

CITY           SKY/WX    TMP DP  RH WIND       PRES   REMARKS
ROCHESTER      CLEAR     77  74  90 E8        29.91R
RED WING       CLEAR     77  72  83 E7        29.88R
STANTON        CLEAR     77  72  83 E6        29.87R
DODGE CENTER   PTCLDY    75  73  94 E5        29.90R
WINONA         CLEAR     77  70  78 CALM      29.90R
AUSTIN         PTCLDY    75  73  94 CALM      29.90R
PRESTON        CLEAR     78  73  82 SE3       29.92R
$$
ABBREVIATIONS USED IN REMARKS
   TC - TEMPERATURES IN CELSIUS
  WCI - WIND CHILL INDEX
   HX - HEAT INDEX
  VSB - VISIBILITY
$$



USA.gov is the U.S. government's official web portal to all federal, state and local government web resources and services.